{"data":{"norad_id":60910,"epoch":"2026-09-21T15:59:28.353696Z","epoch_age_seconds":87726,"freshness":"FRESH","line1":"1 60910U 24154H   26264.66630039 -.00000975  00000+0 -31870-5 0  9991","line2":"2 60910  53.1600 245.2479 0001136 122.0321 238.0808 15.69707213119290","mean_motion":15.69707213,"eccentricity":0.0001136,"inclination_deg":53.16,"raan_deg":245.2479,"arg_perigee_deg":122.0321,"mean_anomaly_deg":238.0808,"bstar":-3.187e-6,"rev_number":11929,"period_min":91.736853094272,"perigee_km":358.96930353073,"apogee_km":360.50014798682,"semimajor_km":6737.8717257588,"source":"CELESTRAK","updated_at":"2026-09-22T09:00:49.284027Z"}}